Location: Kalwaria Zebrzydowska
(49.8686°N, 19.6647°E)
Time: 22:05:17
(UTC+01:00)

ISS - Pass Details

Date: 31 January 2019
Orbit: 403 x 411 km, 51.6° (Epoch: 18 February)

Event Time Altitude Azimuth Distance (km) Brightness Sun altitude
Rises 18:11:04 0° 274° (W) 2,335 1.7 -15.7°
Reaches altitude 10° 18:13:10 10° 278° (W) 1,476 0.2 -16.1°
Maximum altitude 18:16:27 61° 360° (N) 471 -3.6 -16.6°
Enters shadow 18:17:15 44° 57° (ENE) 579 -3.5 -16.7°
